[[{"header":{"parameterUnit":"m.s-1","parameterCategory":1,"la1":30.2991,"la2":30.254,"lo1":-89.0895,"lo2":-89.0444,"dy":0.0017,"dx":0.0017,"nx":28,"ny":28,"refTime":"2024-06-02T21:00:00:Z","depth":0,"parameterNumber":2,"parameterNumberName":"U-component_of_WINDS"},"data":[0,0,0,0,0,0,0,0,0,0,0,0,0,0,0,0,0,0,0,0,0,0,0,0,0,0,0,0,0,0,0,0,0,0,0,0,0,0,0,0,0,0,0,0,0,0,0,0,0,0,0,0,0,0,0,0,0,0,-0.8594,-0.8594,0,-0.8595,-0.8595,-0.8595,-0.8593,-0.8593,-0.8593,-0.8592,-0.8594,-0.8594,-0.8595,0,0,0,0,0,0,0,0,0,0,0,0,0,-0.859,-0.859,-0.8594,-0.8594,-0.8594,-0.8595,-0.8595,-0.8595,-0.8593,-0.8593,-0.8592,-0.8592,-0.8594,-0.8594,-0.8595,0,0,0,0,0,0,0,0,0,0,0,0,0,-0.8591,-0.859,-0.8594,-0.8593,-0.8592,-0.8595,-0.8595,-0.8595,-0.8593,-0.8593,-0.8592,-0.8592,-0.8594,-0.8594,-0.8595,-0.8598,0,0,-0.8595,-0.8595,0,0,0,0,0,0,0,0,-0.8591,-0.8591,-0.8593,-0.8593,-0.8593,-0.8594,-0.8594,-0.8596,-0.8593,-0.8593,-0.8592,-0.8592,-0.8594,-0.8594,-0.8595,-0.8598,-0.8598,-0.8595,-0.8595,-0.8595,-0.8595,0,0,0,0,0,0,0,-0.8591,-0.8591,-0.8594,-0.8593,-0.8593,-0.8592,-0.8592,-0.8595,-0.8594,-0.8593,-0.8592,-0.8593,-0.8594,-0.8595,-0.8595,-0.8598,-0.8595,-0.8595,-0.8595,-0.8596,-0.8606,-0.8606,0,0,0,0,0,0,-0.8591,-0.8591,-0.8594,-0.8594,-0.8591,-0.8593,-0.8593,-0.8593,-0.8594,-0.8594,-0.8593,-0.8593,-0.8594,-0.8595,-0.8595,-0.86,-0.8595,-0.8596,-0.8596,-0.8606,-0.8606,-0.8606,0,0,0,0,0,0,-0.8591,-0.8591,-0.8594,-0.8593,-0.8593,-0.8593,-0.8594,-0.8593,-0.8594,-0.8594,-0.8594,-0.8593,-0.8594,-0.8595,-0.8598,-0.86,-0.8596,-0.8596,-0.8605,-0.8606,-0.8606,-0.8609,0,0,0,0,0,0,-0.8591,-0.8591,-0.8592,-0.8593,-0.8593,-0.8596,-0.8594,-0.8594,-0.8594,-0.8594,-0.8595,-0.8595,-0.8594,-0.8597,-0.8598,-0.86,-0.8596,-0.8605,-0.8606,-0.8606,-0.8609,-0.8609,-0.861,0,0,0,0,0,-0.8591,-0.8593,-0.8592,-0.8593,-0.8594,-0.8596,-0.8597,-0.8596,-0.8595,-0.8596,-0.8596,-0.8595,-0.86,-0.8598,-0.8598,-0.86,-0.8605,-0.8605,-0.8606,-0.8609,-0.8609,-0.861,0,0,0,0,0,0,-0.8593,-0.8593,-0.8592,-0.8595,-0.8596,-0.8596,-0.8598,-0.8597,-0.8598,-0.8598,-0.8597,-0.8597,-0.86,-0.8601,-0.8599,-0.8604,-0.8602,-0.8603,-0.8604,-0.8605,-0.8605,-0.8605,-0.8596,0,0,0,0,0,-0.8594,-0.8595,-0.8595,-0.8597,-0.8598,-0.8598,-0.8599,-0.8598,-0.8599,-0.8599,-0.86,-0.8601,-0.8603,-0.8604,-0.8605,-0.8609,-0.8609,-0.8611,-0.8612,-0.8612,-0.8612,-0.8615,-0.8616,-0.8607,-0.8607,-0.8607,0,0,-0.8595,-0.8595,-0.8596,-0.8598,-0.8598,-0.86,-0.8598,-0.86,-0.8601,-0.86,-0.8602,-0.8603,-0.8604,-0.8608,-0.8609,-0.8608,-0.8615,-0.8612,-0.8613,-0.8613,-0.8616,-0.8616,-0.8617,-0.8607,-0.8607,-0.8607,0,0,-0.8599,-0.8599,-0.8601,-0.8602,-0.8603,-0.8603,-0.8604,-0.8604,-0.8605,-0.8608,-0.8606,-0.8608,-0.8611,-0.8612,-0.8613,-0.8619,-0.8618,-0.8619,-0.8622,-0.8625,-0.8626,-0.8626,-0.8629,-0.8629,-0.862,-0.862,-0.862,0,-0.8601,-0.8603,-0.8603,-0.8605,-0.8606,-0.8605,-0.8607,-0.8608,-0.8609,-0.861,-0.8609,-0.8613,-0.8614,-0.8618,-0.8619,-0.862,-0.8621,-0.8619,-0.8626,-0.8626,-0.8627,-0.8629,-0.863,-0.862,-0.862,-0.862,-0.862,0,-0.8606,-0.8608,-0.8609,-0.8611,-0.8612,-0.8615,-0.8615,-0.8616,-0.8616,-0.8616,-0.8619,-0.862,-0.8622,-0.8623,-0.8623,-0.8628,-0.8627,-0.8626,-0.8623,-0.8628,-0.863,-0.8631,-0.862,-0.862,-0.862,-0.862,0,0,-0.861,-0.8612,-0.8613,-0.8614,-0.8615,-0.8617,-0.862,-0.8622,-0.8623,-0.8625,-0.8627,-0.863,-0.8629,-0.863,-0.863,-0.8632,-0.8637,-0.8631,-0.8631,-0.8632,-0.8643,-0.8644,-0.8645,-0.8637,-0.8637,-0.8637,-0.8643,0,-0.8615,-0.8619,-0.8619,-0.8623,-0.8625,-0.8624,-0.8627,-0.8628,-0.8629,-0.8631,-0.8632,-0.8634,-0.8632,-0.8633,-0.8635,-0.8636,-0.8639,-0.8636,-0.8639,-0.864,-0.8639,-0.8646,-0.8647,-0.8653,-0.8644,-0.8644,-0.8644,0,-0.862,-0.8622,-0.8626,-0.8628,-0.8629,-0.8631,-0.8633,-0.8635,-0.8637,-0.8637,-0.8639,-0.8639,-0.8642,-0.864,-0.8644,-0.8642,-0.8643,-0.8644,-0.8644,-0.8645,-0.8642,-0.8647,-0.8655,-0.8656,-0.8645,-0.8645,-0.8645,0,-0.8623,-0.8627,-0.863,-0.8631,-0.8633,-0.8635,-0.8636,-0.8637,-0.8639,-0.8641,-0.8642,-0.8645,-0.8646,-0.8649,-0.8649,-0.8647,-0.8654,-0.8652,-0.8655,-0.8655,-0.8656,-0.8656,-0.8665,-0.8657,-0.8657,-0.8657,-0.8657,0,-0.8628,-0.8631,-0.8632,-0.8634,-0.8637,-0.8637,-0.8641,-0.8642,-0.8643,-0.8646,-0.8646,-0.8648,-0.8649,-0.8651,-0.8652,-0.8656,-0.8657,-0.8657,-0.8658,-0.8658,-0.8657,-0.8659,-0.8658,-0.8657,-0.8657,-0.8657,-0.8657,0,-0.8632,-0.8633,-0.8636,-0.8638,-0.8639,-0.8641,-0.8643,-0.8646,-0.8646,-0.865,-0.8651,-0.8652,-0.8655,-0.8656,-0.866,-0.866,-0.8666,-0.8665,-0.8665,-0.8665,-0.8668,-0.8668,-0.8678,-0.8679,-0.867,-0.8671,-0.8671,0,-0.8635,-0.8637,-0.864,-0.8641,-0.8642,-0.8645,-0.8647,-0.8647,-0.8649,-0.8652,-0.8654,-0.8658,-0.866,-0.8666,-0.8667,-0.867,-0.867,-0.8674,-0.8671,-0.8671,-0.8671,-0.8671,-0.8671,-0.8674,-0.8674,-0.8674,-0.8674,0,-0.864,-0.8641,-0.8643,-0.8646,-0.8648,-0.865,-0.8652,-0.8654,-0.8655,-0.8657,-0.8661,-0.8663,-0.8667,-0.8671,-0.8674,-0.8676,-0.8675,-0.8675,-0.8676,-0.8676,-0.8676,-0.8677,-0.8667,-0.8675,-0.8675,-0.8675,-0.8675,-0.8675,-0.8644,-0.8646,-0.8648,-0.8651,-0.8653,-0.8656,-0.8658,-0.8659,-0.8662,-0.8666,-0.8666,-0.867,-0.8673,-0.8677,-0.8679,-0.8682,-0.8681,-0.8683,-0.8683,-0.8683,-0.8684,-0.8676,-0.8683,-0.8683,-0.8683,-0.8683,-0.8683,0,-0.8649,-0.8651,-0.8654,-0.8657,-0.866,-0.8659,-0.8662,-0.8664,-0.8668,-0.867,-0.8673,-0.8677,-0.8681,-0.8683,-0.8687,-0.8689,-0.8689,-0.869,-0.869,-0.8691,-0.8684,-0.8683,-0.869,-0.869,-0.869,-0.869,-0.869,-0.869,-0.8653,-0.8657,-0.8658,-0.8663,-0.8664,-0.8668,-0.867,-0.8672,-0.8674,-0.8679,-0.8682,-0.8684,-0.8686,-0.869,-0.8694,-0.8695,-0.8696,-0.8697,-0.8698,-0.8692,-0.8691,-0.869,-0.8689,-0.8697,-0.8697,-0.8704,-0.8704,-0.8704]},{"header":{"parameterUnit":"m.s-1","parameterCategory":1,"la1":30.2991,"la2":30.254,"lo1":-89.0895,"lo2":-89.0444,"dy":0.0017,"dx":0.0017,"nx":28,"ny":28,"refTime":"2024-06-02T21:00:00:Z","depth":0,"parameterNumber":3,"parameterNumberName":"V-component_of_WINDS"},"data":[0,0,0,0,0,0,0,0,0,0,0,0,0,0,0,0,0,0,0,0,0,0,0,0,0,0,0,0,0,0,0,0,0,0,0,0,0,0,0,0,0,0,0,0,0,0,0,0,0,0,0,0,0,0,0,0,0,0,3.1986,3.1987,0,3.205,3.2051,3.2052,3.2012,3.201,3.2008,3.2007,3.207,3.2074,3.2077,0,0,0,0,0,0,0,0,0,0,0,0,0,3.1828,3.1831,3.1986,3.1987,3.1988,3.205,3.2051,3.2052,3.2012,3.201,3.2008,3.2006,3.2069,3.2073,3.2078,0,0,0,0,0,0,0,0,0,0,0,0,0,3.1895,3.1832,3.1986,3.1976,3.1976,3.205,3.2051,3.2052,3.2013,3.201,3.2007,3.2005,3.2068,3.2073,3.2078,3.2166,0,0,3.2094,3.2096,0,0,0,0,0,0,0,0,3.1891,3.1901,3.1977,3.1977,3.1977,3.202,3.2019,3.209,3.2014,3.1999,3.2007,3.2003,3.2056,3.2062,3.208,3.2169,3.2172,3.2094,3.2097,3.21,3.2101,0,0,0,0,0,0,0,3.1887,3.1898,3.2012,3.1978,3.1978,3.1967,3.1974,3.2032,3.2042,3.2,3.1997,3.2005,3.2055,3.2075,3.2081,3.2172,3.2094,3.2099,3.2102,3.2104,3.2334,3.2337,0,0,0,0,0,0,3.1883,3.1894,3.201,3.2013,3.1926,3.1972,3.198,3.2009,3.2041,3.2044,3.2008,3.2003,3.2068,3.2075,3.2083,3.2186,3.21,3.2104,3.2107,3.2331,3.2335,3.2338,0,0,0,0,0,0,3.188,3.1894,3.2007,3.1953,3.1967,3.1978,3.2012,3.2012,3.2031,3.2047,3.2049,3.2026,3.2066,3.2076,3.2145,3.2188,3.2107,3.2111,3.2327,3.2332,3.2336,3.2394,0,0,0,0,0,0,3.1875,3.1893,3.1927,3.1954,3.197,3.2069,3.2014,3.2015,3.2041,3.2036,3.2065,3.2067,3.2064,3.2138,3.215,3.2194,3.2115,3.2324,3.2329,3.2335,3.2388,3.24,3.241,0,0,0,0,0,3.187,3.1941,3.1929,3.1943,3.2013,3.2071,3.208,3.2076,3.2044,3.2078,3.2088,3.2066,3.2182,3.2145,3.2159,3.2205,3.2321,3.2328,3.2334,3.2384,3.2398,3.241,0,0,0,0,0,0,3.1918,3.1944,3.1931,3.2013,3.204,3.2065,3.2107,3.2091,3.2128,3.2121,3.2114,3.2121,3.2193,3.2206,3.2165,3.229,3.2246,3.2256,3.2279,3.2292,3.2303,3.2298,3.212,0,0,0,0,0,3.1939,3.1984,3.2005,3.2075,3.2089,3.2096,3.2121,3.2116,3.2143,3.2154,3.2169,3.2196,3.2238,3.2266,3.2306,3.2391,3.2395,3.2429,3.2439,3.2448,3.2456,3.25,3.2514,3.236,3.236,3.236,0,0,3.1981,3.2001,3.203,3.2085,3.2105,3.2152,3.2106,3.2158,3.2192,3.2162,3.2228,3.224,3.2269,3.2346,3.238,3.2359,3.25,3.2457,3.2464,3.2467,3.2508,3.2523,3.2536,3.2365,3.2364,3.2363,0,0,3.2081,3.2102,3.2161,3.2183,3.2214,3.2218,3.2232,3.2259,3.2265,3.2331,3.2309,3.235,3.2423,3.2444,3.2465,3.2572,3.2552,3.2585,3.2641,3.2684,3.2696,3.2706,3.2743,3.2756,3.2593,3.2594,3.2594,0,3.2129,3.2199,3.2194,3.2247,3.2271,3.2247,3.2306,3.2327,3.237,3.2386,3.2362,3.2452,3.247,3.2551,3.2577,3.2595,3.261,3.2581,3.2694,3.2705,3.2715,3.2749,3.2763,3.2597,3.2597,3.2596,3.2596,0,3.2256,3.2305,3.235,3.2391,3.242,3.2477,3.2479,3.2509,3.2501,3.2507,3.2573,3.2594,3.2637,3.2656,3.2648,3.2735,3.272,3.2695,3.2651,3.2733,3.2766,3.2779,3.2602,3.2601,3.26,3.2599,0,0,3.2389,3.2426,3.2442,3.246,3.2492,3.2529,3.2584,3.2626,3.2651,3.2681,3.2725,3.2787,3.2764,3.2787,3.2782,3.2819,3.29,3.279,3.279,3.2808,3.2994,3.3012,3.3027,3.2888,3.2891,3.2893,3.2991,0,3.249,3.2585,3.2581,3.267,3.2714,3.269,3.2737,3.2762,3.2769,3.2806,3.2814,3.2857,3.2824,3.2838,3.2874,3.2883,3.2937,3.2876,3.2928,3.293,3.292,3.3044,3.3063,3.3155,3.3004,3.3006,3.3008,0,3.262,3.2654,3.2747,3.2771,3.2789,3.2832,3.2869,3.2906,3.2932,3.2934,3.296,3.2948,3.3002,3.2957,3.303,3.2988,3.3009,3.3016,3.302,3.3023,3.2973,3.3049,3.3184,3.3198,3.3028,3.3026,3.3025,0,3.2705,3.2774,3.2838,3.2854,3.2884,3.2914,3.2928,3.2952,3.2977,3.3009,3.3025,3.3063,3.3084,3.3113,3.3112,3.3079,3.3185,3.314,3.3187,3.3187,3.3209,3.3207,3.3348,3.3226,3.3225,3.3225,3.3225,0,3.2817,3.2874,3.2876,3.2915,3.2978,3.2973,3.3035,3.3046,3.3067,3.3107,3.309,3.3127,3.3124,3.3161,3.316,3.322,3.323,3.3232,3.3231,3.3233,3.3232,3.3245,3.3238,3.3229,3.3228,3.3227,3.3227,0,3.2922,3.2926,3.2994,3.3017,3.3023,3.3069,3.3088,3.3124,3.3129,3.318,3.3192,3.32,3.3243,3.3244,3.3295,3.3294,3.3366,3.3358,3.3357,3.3355,3.34,3.3395,3.3553,3.3572,3.3439,3.344,3.3441,0,3.2993,3.3036,3.3063,3.3089,3.3104,3.3146,3.3171,3.3167,3.3194,3.3226,3.3258,3.33,3.3333,3.3403,3.3413,3.3451,3.3443,3.3495,3.3448,3.3448,3.3441,3.3438,3.3442,3.3504,3.3506,3.3507,3.3508,0,3.3117,3.3116,3.3153,3.3191,3.3221,3.325,3.3277,3.3299,3.3298,3.3329,3.3373,3.3399,3.3449,3.349,3.3526,3.354,3.3523,3.3523,3.3535,3.3537,3.3533,3.3534,3.338,3.3519,3.3518,3.3517,3.3516,3.3516,3.3206,3.3242,3.3267,3.3308,3.3328,3.3353,3.3388,3.3397,3.3434,3.3475,3.347,3.3519,3.3543,3.359,3.3606,3.3643,3.3625,3.3643,3.3648,3.3652,3.3656,3.3529,3.365,3.365,3.3649,3.3649,3.3649,0,3.3327,3.3342,3.338,3.3418,3.345,3.3432,3.3461,3.3488,3.3531,3.3555,3.3588,3.3638,3.3677,3.369,3.3727,3.3755,3.3748,3.3764,3.3762,3.3765,3.3671,3.3656,3.3769,3.3769,3.3769,3.3769,3.3769,3.3769,3.3394,3.3455,3.3457,3.3526,3.354,3.3588,3.3605,3.3628,3.3647,3.3703,3.3736,3.3744,3.3762,3.3801,3.3836,3.3839,3.3853,3.3872,3.3871,3.3784,3.3771,3.376,3.3745,3.3876,3.3876,3.3961,3.3962,3.3963]}]]